{"data":{"norad_id":40261,"epoch":"2026-09-20T04:25:21.991584Z","epoch_age_seconds":45330,"freshness":"FRESH","line1":"1 40261U 14059A   26263.18428231  .00000353  00000+0  76411-4 0  9993","line2":"2 40261  97.9852 329.6114 0009928 204.1169 155.9570 14.63813334638816","mean_motion":14.63813334,"eccentricity":0.0009928,"inclination_deg":97.9852,"raan_deg":329.6114,"arg_perigee_deg":204.1169,"mean_anomaly_deg":155.957,"bstar":7.6411e-5,"rev_number":63881,"period_min":98.373198723711,"perigee_km":673.87961754957,"apogee_km":687.89601722698,"semimajor_km":7059.0248173883,"source":"CELESTRAK","updated_at":"2026-09-20T09:00:14.024379Z"}}